Weather History for PAMH - May, 2013

Change the Weather History Date:

Monday, May 20, 2013

  Actual Average Record
Temperature  
Mean Temperature 40 °F -  
Max Temperature 53 °F - - ()
Min Temperature 28 °F - - ()
Degree Days  
Heating Degree Days 24    
Moisture  
Dew Point 17 °F    
Average Humidity 38    
Maximum Humidity 69    
Minimum Humidity 24    
Precipitation  
Precipitation 0.00 in - - ()
Sea Level Pressure  
Sea Level Pressure 30.48 in    
Wind  
Wind Speed 1 mph (East)    
Max Wind Speed 8 mph    
Max Gust Speed -    
Visibility 10 miles    
Events      
T = Trace of Precipitation, MM = Missing Value Source: NWS Daily Summary

Daily Weather History Graph

Daily Weather History Graph

Search for Another Location

Airport or City:

Trip Planner

Search our weather history database for the weather conditions in past years. The results will help you decide how hot, cold, wet, or windy it might be!

Date:

Astronomy

May. 20, 2013 Rise Set
Actual Time 4:40 AM AKDT 11:33 PM AKDT
Civil Twilight 2:21 AM AKDT 1:33 AM AKDT
Nautical Twilight Sun does not set Sun does not set
Astronomical Twilight Sun does not set Sun does not set
Moon 5:08 PM AKDT (5/20) 3:36 AM AKDT (5/20)
Length of Visible Light 23h 11m
Length of Day
18h 53m
Waxing Gibbous, 76% of the Moon is Illuminated
May 20
Waxing Gibbous
May 24
Full
May 31
Last Quarter
Jun 8
New
Jun 16
First Quarter

Hourly Weather History & Observations

Time (AKDT) Temp. Windchill Dew Point Humidity Pressure Visibility Wind Dir Wind Speed Gust Speed Precip Events Conditions
12:16 AM 35.6 °F - 12.2 °F 38% 30.53 in 10.0 mi Calm Calm - N/A   Clear
12:36 AM 35.6 °F - 12.2 °F 38% 30.53 in 10.0 mi Calm Calm - N/A   Clear
12:56 AM 35.6 °F - 12.2 °F 38% 30.54 in 10.0 mi Calm Calm - N/A   Clear
1:16 AM 35.6 °F - 12.2 °F 38% 30.55 in 10.0 mi Calm Calm - N/A   Clear
1:36 AM 35.6 °F - 15.8 °F 44% 30.55 in 10.0 mi Calm Calm - N/A   Clear
1:56 AM 33.8 °F - 14.0 °F 44% 30.56 in 10.0 mi Calm Calm - N/A   Clear
2:16 AM 33.8 °F - 14.0 °F 44% 30.56 in 10.0 mi Calm Calm - N/A   Clear
2:36 AM 32.0 °F - 12.2 °F 44% 30.56 in 10.0 mi Calm Calm - N/A   Clear
2:56 AM 30.2 °F - 14.0 °F 51% 30.56 in 10.0 mi Calm Calm - N/A   Clear
3:16 AM 30.2 °F - 14.0 °F 51% 30.56 in 10.0 mi Calm Calm - N/A   Clear
3:36 AM 30.2 °F - 14.0 °F 51% 30.56 in 10.0 mi Calm Calm - N/A   Clear
4:16 AM 28.4 °F - 14.0 °F 55% 30.56 in 10.0 mi Calm Calm - N/A   Clear
4:36 AM 28.4 °F - 12.2 °F 51% 30.56 in 10.0 mi Calm Calm - N/A   Clear
4:56 AM 28.4 °F - 12.2 °F 51% 30.56 in 10.0 mi Calm Calm - N/A   Clear
5:16 AM 28.4 °F - 12.2 °F 51% 30.56 in 10.0 mi Calm Calm - N/A   Clear
5:36 AM 28.4 °F - 12.2 °F 51% 30.56 in 10.0 mi Calm Calm - N/A   Clear
5:56 AM 28.4 °F - 14.0 °F 55% 30.56 in 10.0 mi Calm Calm - N/A   Clear
6:16 AM 28.4 °F - 15.8 °F 59% 30.55 in 10.0 mi Calm Calm - N/A   Clear
6:36 AM 28.4 °F - 15.8 °F 59% 30.56 in 10.0 mi Calm Calm - N/A   Clear
6:56 AM 28.4 °F - 17.6 °F 64% 30.55 in 10.0 mi Calm Calm - N/A   Clear
7:16 AM 28.4 °F - 19.4 °F 69% 30.55 in 10.0 mi Calm Calm - N/A   Clear
7:36 AM 30.2 °F - 15.8 °F 55% 30.55 in 10.0 mi Calm Calm - N/A   Clear
7:56 AM 30.2 °F - 15.8 °F 55% 30.55 in 10.0 mi Calm Calm - N/A   Clear
8:16 AM 32.0 °F - 15.8 °F 51% 30.54 in 10.0 mi Calm Calm - N/A   Clear
8:36 AM 32.0 °F - 17.6 °F 55% 30.54 in 10.0 mi Calm Calm - N/A   Clear
8:56 AM 33.8 °F - 15.8 °F 48% 30.54 in 10.0 mi Calm Calm - N/A   Clear
9:16 AM 35.6 °F 32.8 °F 14.0 °F 41% 30.54 in 10.0 mi ESE 3.5 mph - N/A   Clear
9:36 AM 37.4 °F 34.9 °F 15.8 °F 41% 30.54 in 10.0 mi ENE 3.5 mph - N/A   Clear
9:56 AM 37.4 °F - 14.0 °F 38% 30.54 in 10.0 mi Calm Calm - N/A   Clear
10:16 AM 39.2 °F 35.9 °F 15.8 °F 39% 30.53 in 10.0 mi ESE 4.6 mph - N/A   Clear
10:56 AM 42.8 °F - 15.8 °F 34% 30.52 in 10.0 mi Calm Calm - N/A   Clear
11:16 AM 44.6 °F - 15.8 °F 31% 30.51 in 10.0 mi Calm Calm - N/A   Clear
11:36 AM 44.6 °F - 15.8 °F 31% 30.51 in 10.0 mi Calm Calm - N/A   Clear
11:56 AM 46.4 °F 45.2 °F 15.8 °F 29% 30.51 in 10.0 mi East 3.5 mph - N/A   Clear
12:16 PM 46.4 °F 45.2 °F 17.6 °F 32% 30.51 in 10.0 mi East 3.5 mph - N/A   Clear
12:36 PM 48.2 °F - 17.6 °F 30% 30.50 in 10.0 mi ENE 4.6 mph - N/A   Clear
12:56 PM 48.2 °F - 15.8 °F 27% 30.50 in 10.0 mi ENE 4.6 mph - N/A   Clear
1:16 PM 48.2 °F - 15.8 °F 27% 30.49 in 10.0 mi ENE 4.6 mph - N/A   Clear
1:36 PM 48.2 °F - 15.8 °F 27% 30.48 in 10.0 mi ENE 5.8 mph - N/A   Clear
1:56 PM 48.2 °F - 15.8 °F 27% 30.48 in 10.0 mi ENE 5.8 mph - N/A   Clear
2:16 PM 50.0 °F - 17.6 °F 28% 30.47 in 10.0 mi ENE 5.8 mph - N/A   Clear
2:36 PM 50.0 °F - 17.6 °F 28% 30.46 in 10.0 mi ENE 3.5 mph - N/A   Clear
2:56 PM 51.8 °F - 17.6 °F 26% 30.46 in 10.0 mi East 4.6 mph - N/A   Clear
3:16 PM 51.8 °F - 17.6 °F 26% 30.45 in 10.0 mi East 3.5 mph - N/A   Clear
3:36 PM 51.8 °F - 17.6 °F 26% 30.45 in 10.0 mi ENE 4.6 mph - N/A   Clear
3:56 PM 51.8 °F - 17.6 °F 26% 30.45 in 10.0 mi ENE 3.5 mph - N/A   Clear
4:16 PM 51.8 °F - 17.6 °F 26% 30.44 in 10.0 mi ENE 3.5 mph - N/A   Clear
4:36 PM 51.8 °F - 17.6 °F 26% 30.43 in 10.0 mi ENE 3.5 mph - N/A   Clear
4:56 PM 53.6 °F - 19.4 °F 26% 30.43 in 10.0 mi ENE 4.6 mph - N/A   Clear
5:16 PM 51.8 °F - 17.6 °F 26% 30.42 in 10.0 mi ENE 3.5 mph - N/A   Clear
5:36 PM 51.8 °F - 17.6 °F 26% 30.41 in 10.0 mi East 5.8 mph - N/A   Clear
5:56 PM 51.8 °F - 19.4 °F 28% 30.41 in 10.0 mi ENE 3.5 mph - N/A   Clear
6:16 PM 51.8 °F - 17.6 °F 26% 30.40 in 10.0 mi Calm Calm - N/A   Clear
6:36 PM 53.6 °F - 17.6 °F 24% 30.40 in 10.0 mi Calm Calm - N/A   Clear
6:56 PM 51.8 °F - 19.4 °F 28% 30.39 in 10.0 mi East 4.6 mph - N/A   Clear
7:16 PM 51.8 °F - 19.4 °F 28% 30.39 in 10.0 mi Calm Calm - N/A   Clear
7:36 PM 51.8 °F - 17.6 °F 26% 30.38 in 10.0 mi Calm Calm - N/A   Clear
7:56 PM 51.8 °F - 19.4 °F 28% 30.38 in 10.0 mi South 8.1 mph - N/A   Clear
8:16 PM 51.8 °F - 19.4 °F 28% 30.37 in 10.0 mi South 5.8 mph - N/A   Clear
8:36 PM 51.8 °F - 19.4 °F 28% 30.37 in 10.0 mi South 4.6 mph - N/A   Clear
8:56 PM 50.0 °F - 23.0 °F 35% 30.37 in 10.0 mi Calm Calm - N/A   Clear
9:16 PM 51.8 °F - 19.4 °F 28% 30.37 in 10.0 mi Calm Calm - N/A   Clear
9:36 PM 50.0 °F - 21.2 °F 32% 30.37 in 10.0 mi Calm Calm - N/A   Clear
9:56 PM 48.2 °F - 21.2 °F 34% 30.37 in 10.0 mi Calm Calm - N/A   Clear
10:16 PM 48.2 °F - 19.4 °F 32% 30.37 in 10.0 mi Calm Calm - N/A   Clear
10:36 PM 48.2 °F - 19.4 °F 32% 30.37 in 10.0 mi Calm Calm - N/A   Clear
10:56 PM 46.4 °F - 19.4 °F 34% 30.37 in 10.0 mi Calm Calm - N/A   Clear
11:16 PM 46.4 °F - 19.4 °F 34% 30.37 in 10.0 mi Calm Calm - N/A   Clear
11:36 PM 46.4 °F - 17.6 °F 32% 30.37 in 10.0 mi Calm Calm - N/A   Clear
11:56 PM 44.6 °F - 17.6 °F 34% 30.37 in 10.0 mi Calm Calm - N/A   Clear